Location: M�nchen
(48.1404°N, 11.6043°E)
Time: 11:32:27
(UTC+02:00)

ISS - Visible Passes

Search period start: 25 September 2017 00:00
Search period end: 05 October 2017 00:00
Orbit: 401 x 407 km, 51.6° (Epoch: 25 September)

Date Brightness Start Highest point End Pass type
(mag) Time Alt. Az. Time Alt. Az. Time Alt. Az.
25 Sep -1.2 21:18:59 10° SW 21:19:29 14° SW 21:19:29 14° SW visible
26 Sep -2.8 20:27:02 10° SSW 20:29:49 28° SE 20:29:49 28° SE visible
27 Sep -2.0 19:35:28 10° S 19:37:42 17° SE 19:39:56 10° E visible
27 Sep -2.6 21:10:30 10° WSW 21:12:38 38° WSW 21:12:38 38° WSW visible
28 Sep -3.7 20:18:13 10° SW 20:21:26 54° SSE 20:22:38 32° E visible
28 Sep -0.7 21:54:45 10° W 21:55:17 14° W 21:55:17 14° W visible
29 Sep -2.9 19:26:09 10° SSW 19:29:08 33° SE 19:32:07 10° E visible
29 Sep -3.2 21:02:14 10° W 21:05:07 57° NW 21:05:07 57° NW visible
30 Sep -3.9 20:09:45 10° WSW 20:13:02 86° NNW 20:14:52 24° ENE visible
30 Sep -0.9 21:46:35 10° WNW 21:47:31 17° WNW 21:47:31 17° WNW visible
01 Oct -3.7 19:17:23 10° SW 19:20:37 63° SSE 19:23:53 10° ENE visible
01 Oct -3.1 20:54:01 10° W 20:57:10 47° N 20:57:10 47° N visible
02 Oct -3.4 20:01:26 10° W 20:04:40 57° NNW 20:06:45 20° ENE visible
02 Oct -1.0 21:38:18 10° WNW 21:39:24 19° WNW 21:39:24 19° WNW visible
03 Oct -3.0 20:45:45 10° WNW 20:48:54 43° N 20:48:57 43° N visible
04 Oct -3.0 19:53:09 10° W 19:56:20 45° N 19:58:28 18° ENE visible
04 Oct -1.1 21:29:53 10° WNW 21:31:06 20° WNW 21:31:06 20° WNW visible
